Theta_e
321 313 312 310 300 295 289 293 295 297 297 298 302 303 302 302 303 298 319 328 342 345 349 351 351 353 353 353 352 352 352 351 349 349 346 345 343 342 340 339 337 335 333 334 335 337 339 339 339
313 317 312 304 294 288 289 293 295 296 300 301 303 301 301 302 312 315 319 328 343 346 349 350 347 350 352 353 352 352 351 349 349 348 346 345 342 340 338 337 336 333 332 332 334 337 338 338 336
317 314 303 299 291 287 289 293 296 299 300 300 298 302 303 305 311 314 324 330 343 344 347 347 347 350 351 351 351 350 349 350 348 346 346 343 341 339 337 336 335 333 331 331 333 335 335 334 335
308 307 302 293 290 292 292 294 299 299 299 302 301 301 308 316 314 318 328 330 339 343 346 343 347 350 350 350 349 349 349 348 347 346 345 343 340 337 336 335 334 332 329 328 329 331 333 333 333
307 300 294 291 289 293 294 297 298 298 297 297 300 299 305 317 320 326 327 331 331 340 344 344 345 347 348 348 349 349 348 348 346 345 343 341 339 336 336 334 333 331 329 326 325 326 326 325 325
300 296 289 288 289 293 294 297 296 296 297 297 300 299 300 312 319 321 327 329 334 341 343 345 339 341 344 346 346 346 345 346 346 344 343 340 338 337 336 335 333 332 330 326 322 320 320 318 318
300 293 288 289 291 293 296 299 295 296 296 297 301 297 300 305 313 321 326 330 333 339 341 340 340 340 339 340 341 342 344 344 343 343 342 339 338 337 336 335 334 333 331 328 322 318 317 315 314
299 294 288 289 290 291 296 297 298 298 296 300 300 297 296 300 307 318 325 328 324 324 335 339 340 339 340 339 335 337 339 340 340 339 336 333 333 333 332 331 333 332 330 328 324 321 319 318 317
299 290 287 289 290 293 296 295 298 300 297 298 300 298 300 303 307 314 318 319 316 313 311 317 339 338 341 339 335 334 334 335 334 333 329 327 330 330 329 328 331 331 329 328 326 325 321 317 319
296 290 291 292 293 293 296 297 297 295 296 295 298 301 303 303 304 306 306 303 303 305 307 309 313 332 336 339 337 338 335 335 335 331 330 330 330 328 324 322 325 327 326 327 326 325 321 316 311
295 291 294 295 298 298 297 296 298 295 293 295 297 299 301 300 301 301 301 302 302 304 308 310 310 316 332 334 337 337 335 335 336 332 332 329 327 324 324 321 319 319 318 320 320 318 315 312 311
291 297 296 300 299 298 296 298 295 296 296 299 299 300 299 299 299 300 301 302 304 306 308 311 314 311 332 329 326 325 325 324 324 328 334 330 327 326 323 320 319 318 318 316 317 316 312 311 312
294 296 298 299 299 297 299 296 296 295 297 299 300 300 298 298 299 300 302 304 304 305 308 311 314 313 325 321 319 317 315 315 317 320 327 327 323 320 319 317 316 315 315 314 313 313 312 309 309
296 297 297 299 299 299 297 295 297 295 297 297 298 296 296 297 298 298 301 301 303 306 307 312 316 318 317 314 313 311 311 310 311 312 316 318 318 316 314 312 312 311 312 312 311 312 307 304 304
296 293 296 297 297 297 297 294 294 296 297 296 296 294 295 296 297 297 299 300 302 303 306 309 310 311 310 308 308 307 307 307 307 308 310 311 312 310 308 307 306 305 305 308 305 304 297 296 297
292 291 288 296 297 296 296 290 297 296 295 294 293 292 294 295 296 298 299 299 301 300 300 303 305 307 306 305 304 304 303 303 303 304 305 305 306 306 303 300 298 297 296 299 297 294 290 290 291
290 286 288 293 297 295 293 290 294 295 295 293 292 292 293 293 295 296 297 297 299 299 298 299 300 300 300 301 300 299 299 298 299 299 299 299 298 297 296 294 294 293 292 291 292 290 288 288 288
287 287 289 289 294 292 291 291 294 295 294 293 292 292 292 292 293 295 296 297 297 297 296 297 297 297 297 297 296 295 294 294 294 294 294 295 294 294 293 291 290 290 288 288 287 288 288 287 286
291 289 288 291 296 292 290 291 293 294 293 292 292 292 292 292 293 295 295 295 296 295 297 296 296 296 297 296 294 293 290 291 290 291 291 291 291 290 289 289 288 287 286 286 286 286 286 285 286
292 289 289 292 295 292 291 291 294 294 294 295 295 293 292 290 292 293 293 293 295 296 296 297 296 297 297 296 294 292 290 289 289 289 288 288 288 288 287 287 286 285 285 285 284 284 284 284 285
291 290 290 291 293 291 290 288 290 294 294 294 296 295 293 291 292 292 292 291 292 295 296 296 296 295 294 293 291 290 289 289 287 287 286 286 287 286 286 286 285 285 285 284 283 283 282 281 283
289 293 293 292 288 284 290 284 289 291 292 293 296 292 291 290 293 292 291 290 291 295 296 295 294 293 293 292 290 289 287 285 285 285 285 285 286 285 286 285 285 284 284 283 283 283 282 281 280
291 294 292 291 287 285 285 283 286 292 292 292 294 289 289 290 292 291 291 291 293 294 294 293 293 293 293 292 290 288 286 285 285 284 283 284 284 285 285 284 284 283 283 282 282 282 282 282 280
294 291 291 288 286 280 285 285 289 291 293 295 292 289 289 289 290 290 290 291 291 291 292 293 292 291 290 290 289 287 285 284 284 283 282 282 283 283 283 283 283 282 282 281 281 281 280 280 279
291 287 280 278 278 280 287 284 289 293 293 294 291 290 289 289 289 288 287 288 289 289 289 289 289 288 288 288 287 287 286 285 284 283 282 282 281 281 281 281 281 280 280 280 280 279 278 277 277
288 288 282 275 277 279 283 281 287 290 290 292 292 291 289 288 288 286 286 287 288 288 288 288 288 287 286 286 285 286 286 285 284 283 282 281 281 281 281 280 280 279 279 278 278 277 277 276 276
287 285 291 284 280 277 283 285 290 288 287 288 288 288 287 286 285 285 285 285 287 287 287 287 287 286 286 286 286 285 285 284 282 282 282 281 280 281 279 278 278 277 277 277 276 275 275 274 275
290 292 284 287 277 276 280 281 286 286 286 286 286 286 285 284 284 284 284 284 285 287 286 286 286 285 285 285 285 284 283 283 282 281 280 279 279 279 278 277 277 276 276 275 275 274 274 274 274
288 287 289 289 285 278 275 281 288 289 288 287 287 287 286 283 283 283 284 285 285 284 285 284 284 284 284 285 284 283 282 281 281 280 278 278 278 277 277 277 276 276 275 274 274 273 274 273 273
294 291 291 285 280 283 280 284 288 288 289 289 288 288 286 284 284 283 284 284 284 284 284 284 284 284 284 284 283 281 281 279 279 278 277 277 276 276 276 276 275 275 274 274 273 273 273 272 272
Wind_Speed
8 8 1 5 6 6 1 1 4 4 4 1 3 11 10 3 3 5 5 6 15 12 10 10 11 11 11 11 10 10 10 13 15 15 15 16 16 15 15 15 15 15 16 15 15 15 14 14 13
5 5 5 2 6 4 5 4 8 4 4 4 9 6 8 4 4 5 3 2 13 12 10 9 11 11 11 11 9 9 9 10 14 16 16 15 15 14 15 15 15 15 16 15 16 16 16 14 13
4 2 4 4 3 3 4 4 7 4 4 2 3 6 4 3 1 3 5 4 15 13 11 10 13 13 12 12 8 8 9 10 12 14 16 15 16 15 15 15 16 16 16 16 17 16 15 15 13
2 5 5 5 4 6 6 6 8 6 3 4 5 8 5 4 2 5 4 5 13 12 12 12 11 13 11 14 9 9 9 10 12 14 16 15 16 16 16 16 16 16 16 16 16 16 15 14 14
4 4 3 2 3 6 4 4 7 5 5 1 4 3 5 4 5 5 5 7 8 7 11 9 13 12 12 12 10 10 10 10 13 15 16 15 16 15 16 16 16 16 16 16 15 15 15 15 15
5 4 5 2 0 4 3 3 2 4 4 4 7 5 3 2 5 3 7 6 8 9 8 7 9 10 10 10 10 9 8 11 14 15 15 16 16 16 16 16 16 16 16 16 15 15 14 14 14
4 4 3 1 3 3 5 4 1 4 7 1 6 5 3 3 1 5 7 8 8 7 7 6 6 7 9 8 8 9 10 11 14 15 15 14 14 14 14 13 15 16 16 15 14 15 15 15 14
4 5 3 3 2 2 4 3 3 6 1 1 3 7 5 4 2 6 7 8 9 8 4 6 7 6 6 5 8 9 10 11 13 13 13 12 12 14 11 9 12 15 15 14 13 12 12 12 14
3 5 1 3 2 4 3 3 2 2 5 5 5 4 5 5 3 7 6 5 6 6 7 7 4 6 5 5 7 9 11 11 12 11 12 11 7 7 8 8 11 12 13 13 12 12 10 9 11
5 4 2 1 4 3 2 4 5 3 4 4 5 4 5 6 5 7 6 6 5 5 6 6 7 2 4 3 6 6 6 4 5 6 7 5 6 7 8 9 11 10 9 9 9 11 10 7 4
2 4 1 4 3 4 1 2 4 4 3 3 7 8 5 7 8 8 6 5 4 4 5 7 5 5 3 4 3 3 3 3 3 7 5 7 7 6 4 4 3 3 5 3 5 5 4 6 5
2 4 2 2 2 3 2 3 2 4 5 7 9 7 6 9 7 7 7 6 6 6 6 7 7 5 5 5 5 5 5 4 4 4 7 7 5 5 5 4 4 4 3 5 5 4 5 6 6
3 3 0 2 3 2 2 3 3 3 7 8 9 9 9 8 7 6 7 7 6 6 5 6 5 2 7 9 6 6 6 6 5 6 6 7 6 6 6 6 5 4 4 4 5 4 5 5 6
1 3 5 4 5 3 4 3 2 0 9 9 10 9 8 9 7 5 7 5 6 4 4 5 7 8 9 8 8 7 6 7 6 7 7 9 7 8 6 6 6 5 4 4 4 5 6 5 5
2 4 6 7 6 4 5 7 10 7 9 9 9 8 8 7 8 6 6 6 5 3 4 6 8 7 11 10 9 8 6 7 8 7 10 11 10 10 8 7 6 5 5 6 8 8 6 5 5
1 1 2 5 8 3 7 10 7 11 12 10 9 8 8 6 7 8 6 6 6 6 6 7 6 9 10 10 9 8 7 8 8 8 8 12 11 10 9 8 7 6 7 6 8 6 5 5 5
2 4 5 8 7 6 5 8 2 5 7 9 9 9 9 7 6 6 7 6 6 6 6 8 8 10 11 11 10 10 10 9 8 8 8 11 12 11 10 8 8 8 8 8 5 7 4 6 6
6 5 5 6 5 3 6 11 5 9 8 10 10 10 10 10 8 8 7 6 7 7 7 8 8 10 10 9 10 9 10 10 9 8 9 11 10 12 11 9 9 7 8 7 4 7 7 5 5
4 4 5 7 4 6 10 8 12 11 8 9 10 11 12 11 8 9 7 7 7 6 9 9 11 8 7 7 9 8 8 9 10 9 12 11 11 11 10 8 8 9 9 7 7 3 7 11 10
8 8 12 7 5 5 8 15 12 9 14 15 19 15 14 10 11 10 9 6 5 7 9 10 10 9 6 5 6 6 8 9 9 9 10 10 11 10 10 10 9 7 8 10 10 8 4 5 10
7 12 6 10 5 4 6 11 10 9 11 10 15 10 14 19 16 11 11 8 8 9 10 11 10 9 9 11 11 11 11 9 9 9 7 8 10 10 11 10 9 8 8 8 8 8 8 6 5
13 5 7 6 2 7 6 19 8 7 13 13 20 14 17 15 13 12 12 9 9 10 9 10 12 13 12 12 11 13 11 12 7 7 7 8 9 10 10 10 10 9 7 9 8 6 6 4 6
5 3 3 4 5 3 2 7 3 7 12 11 15 9 15 16 16 15 14 12 10 12 11 9 12 11 11 10 11 11 14 11 9 9 11 9 8 9 9 9 9 9 6 6 8 7 9 6 4
8 6 6 4 3 10 9 10 32 13 16 12 7 9 15 15 13 13 12 12 11 10 10 11 11 10 12 12 12 14 17 15 12 9 9 7 6 6 8 9 8 7 7 7 6 6 8 6 5
4 8 2 4 1 11 9 10 21 10 5 9 14 16 15 16 15 16 16 13 13 13 11 10 14 13 13 14 12 13 14 14 15 12 9 10 7 6 6 7 7 6 6 6 6 6 6 5 4
8 11 8 8 5 4 4 12 9 4 5 5 12 16 16 16 14 16 14 13 14 13 13 12 13 12 12 12 11 10 13 9 9 10 9 7 7 7 6 7 7 7 7 6 6 4 4 5 5
6 10 8 2 2 2 7 9 8 3 1 5 11 14 15 14 15 15 14 11 12 13 12 12 13 12 13 13 12 11 11 11 11 11 9 8 8 7 7 7 8 7 6 5 5 4 5 5 5
7 7 4 4 5 8 6 8 12 7 9 7 10 13 13 13 15 15 14 13 12 13 11 12 13 14 13 12 11 10 11 11 11 10 10 9 8 8 8 7 6 6 5 5 6 5 5 5 4
5 6 3 5 4 5 3 9 5 6 9 16 14 15 16 15 16 15 13 13 13 11 13 13 12 14 13 12 11 12 11 11 10 10 9 8 8 7 7 6 6 6 6 6 6 6 6 6 5
10 12 13 6 7 6 2 14 2 3 4 11 14 14 14 15 16 15 16 16 14 14 14 14 13 13 12 12 12 12 11 11 11 10 9 8 8 6 6 6 6 6 6 6 6 5 5 4 4
Wind_Direction
318 303 163 38 51 62 164 297 122 93 50 334 23 94 114 60 72 162 241 90 123 132 136 138 132 126 120 116 115 119 123 120 115 109 100 90 83 81 76 74 65 64 64 63 62 63 62 60 56
322 320 41 70 85 74 287 96 96 107 147 134 117 103 54 56 51 103 71 79 138 134 136 140 137 134 130 122 119 123 116 123 122 116 106 96 86 82 79 74 69 65 64 64 61 61 62 59 63
286 193 80 104 105 140 158 139 143 97 72 105 98 77 74 348 65 96 200 157 142 142 143 153 148 147 143 129 130 117 122 131 123 120 110 102 96 91 88 80 72 66 65 62 61 61 62 59 51
14 12 20 84 149 345 120 165 135 117 13 38 110 64 57 305 91 147 144 134 139 149 142 155 154 151 151 133 132 122 124 127 124 120 111 106 101 96 93 85 76 70 66 65 64 62 61 59 47
37 66 41 108 151 141 100 135 131 148 149 119 95 117 87 2 101 113 105 112 116 119 137 155 152 150 135 133 138 137 136 132 132 128 116 110 105 101 98 94 88 81 74 69 66 63 59 53 45
19 85 49 338 165 108 89 109 81 99 144 106 77 105 104 305 68 58 84 123 110 121 122 120 126 131 136 142 146 146 141 134 136 128 122 117 111 106 104 100 94 86 78 73 70 66 62 56 48
104 79 212 310 169 128 156 113 49 167 127 101 138 80 151 62 16 89 88 85 97 101 117 122 124 136 145 150 150 149 141 138 136 132 125 120 116 108 107 104 99 93 85 79 75 71 64 57 51
98 94 316 302 164 57 174 100 123 78 243 78 96 154 181 213 215 99 83 74 57 46 84 153 151 146 147 156 152 151 142 139 136 131 127 122 121 117 107 103 102 97 88 82 84 83 76 63 49
71 62 298 292 102 139 201 106 24 152 99 59 28 99 155 182 146 99 86 66 56 42 50 32 87 125 125 169 164 154 147 142 137 134 130 128 123 106 98 96 100 96 92 84 70 64 70 63 47
84 101 264 106 340 115 163 110 165 111 123 86 69 56 100 70 97 101 98 75 54 34 29 35 29 79 108 124 150 142 128 133 137 129 141 122 107 97 92 78 74 79 72 65 75 70 57 55 52
12 166 300 6 75 71 61 105 143 131 138 236 179 156 124 93 84 96 93 102 101 63 25 16 9 351 112 71 94 89 90 92 115 137 136 109 112 113 102 92 79 66 51 51 54 54 49 38 25
58 280 134 331 49 51 123 297 123 161 173 142 124 144 114 109 104 106 103 84 66 54 24 357 353 341 60 78 67 74 81 74 72 74 138 123 118 121 94 83 59 59 42 43 41 47 33 30 17
147 319 82 142 135 243 331 254 211 166 155 135 122 110 123 122 121 98 106 81 74 57 18 2 327 3 92 87 82 72 69 64 56 52 75 106 104 90 87 78 61 42 34 54 50 42 39 22 8
273 335 289 268 219 217 182 254 135 102 152 147 135 137 135 129 138 111 97 89 77 73 51 41 58 80 92 88 89 82 74 69 60 55 65 75 84 84 77 69 63 46 27 45 53 44 34 25 14
6 329 312 246 205 222 132 289 231 171 163 156 151 147 140 140 117 124 123 111 117 93 76 65 64 83 90 94 92 81 83 81 71 64 63 77 81 86 89 78 59 38 31 34 49 44 30 23 5
308 343 314 275 155 216 116 264 275 169 155 172 168 162 154 157 140 118 120 116 108 101 91 79 83 88 91 96 97 94 87 84 79 77 78 76 76 76 71 68 54 37 48 46 52 33 17 9 7
317 241 230 310 169 131 157 253 297 155 167 185 185 183 173 158 142 126 121 125 125 123 110 99 92 93 99 99 98 95 91 85 81 79 75 75 75 76 81 68 61 57 53 45 40 45 27 15 0
204 221 253 234 219 168 194 251 226 197 189 205 197 190 180 172 168 142 126 123 116 115 109 107 102 105 107 109 104 96 87 81 74 71 70 73 74 77 81 76 64 60 59 43 29 50 33 19 350
182 210 239 266 250 162 220 235 230 211 212 211 215 200 187 172 158 136 127 128 123 117 120 124 120 118 121 125 114 96 105 93 79 73 69 72 77 72 77 76 73 64 65 54 36 34 41 28 4
231 247 263 299 209 182 255 245 242 199 218 209 212 202 181 152 153 145 138 145 149 140 134 129 127 127 130 114 115 111 107 93 90 82 68 66 70 77 80 78 69 62 69 54 45 38 29 36 22
215 219 229 238 301 246 298 262 241 244 217 217 229 201 176 167 155 150 149 153 148 150 146 140 136 127 115 116 118 109 105 94 96 82 78 65 74 75 79 79 78 71 69 66 55 45 45 44 17
240 211 224 245 274 253 160 288 226 228 237 214 226 181 169 163 154 151 149 154 159 152 147 140 135 130 132 135 132 126 122 120 108 102 98 81 74 77 78 81 79 77 72 66 64 54 55 57 38
226 92 172 208 221 289 213 304 98 209 241 243 221 171 160 161 153 156 154 154 156 149 148 139 138 140 139 137 131 128 118 117 114 107 101 91 80 75 74 74 74 71 68 68 68 57 54 50 69
149 76 37 34 72 261 173 189 281 237 225 246 167 158 155 155 151 146 141 145 145 141 145 150 147 136 133 130 133 130 130 131 125 121 111 105 96 85 74 75 75 73 70 68 67 69 64 58 59
120 97 307 314 308 248 187 212 247 302 283 223 180 169 163 156 152 149 149 153 148 147 144 137 138 137 134 130 130 132 132 128 127 130 127 124 111 98 90 85 79 75 68 65 67 70 68 59 71
190 164 164 221 216 277 317 240 248 262 323 272 172 165 152 156 153 153 150 153 156 154 151 143 138 132 129 129 123 122 125 127 125 127 124 116 116 112 104 92 86 77 68 64 68 75 78 64 61
202 207 184 96 111 302 220 283 295 240 21 100 139 151 163 155 155 152 149 148 155 153 154 147 137 130 131 130 127 123 122 123 124 118 113 115 116 114 106 96 91 85 83 81 84 76 64 53 38
160 164 126 100 218 230 265 253 240 246 220 190 170 168 163 155 156 157 157 155 159 159 150 141 140 139 135 129 129 127 126 124 123 123 121 118 108 104 101 99 100 102 93 80 68 54 48 52 30
164 203 182 144 189 208 290 257 207 265 191 193 188 177 172 165 164 163 164 161 161 153 152 146 143 143 141 137 134 131 130 128 123 121 120 118 112 111 111 117 118 101 79 64 64 60 50 36 24
249 207 194 189 207 231 146 260 183 301 226 176 180 179 174 168 169 167 164 165 164 161 156 153 150 149 148 140 137 136 131 128 126 126 124 123 121 119 127 119 95 89 82 67 65 56 50 34 9